,�O�C���x[��],����1,�O�C���x[��],����2,���ԉ��x[��],����3,���Ԏ��x[��],����4,�m��2(��󒲎�)���x[��],����5,����[��],����6
2004/8/1 0:00,26.7,0,76,0 ,29.3,0 ,63,0 ,28.8,0 ,28.1,0 
2004/8/1 0:15,26.6,0,76,0 ,29.3,0 ,62,0 ,28.8,0 ,28.1,0 
2004/8/1 0:30,26.4,0,77,0 ,29.3,0 ,63,0 ,28.7,0 ,28.1,0 
2004/8/1 0:45,26.3,0,77,0 ,29.3,0 ,62,0 ,28.7,0 ,28.2,0 
2004/8/1 1:00,26.3,0,77,0 ,29.3,0 ,62,0 ,28.6,0 ,28.2,0 
2004/8/1 1:15,26,0,78,0 ,29.3,0 ,62,0 ,28.6,0 ,28.2,0 
2004/8/1 1:30,26,0,78,0 ,29.3,0 ,62,0 ,28.6,0 ,28.2,0 
2004/8/1 1:45,25.9,0,78,0 ,29.3,0 ,61,0 ,28.6,0 ,28.2,0 
2004/8/1 2:00,25.9,0,78,0 ,29.3,0 ,61,0 ,28.5,0 ,28.2,0 
2004/8/1 2:15,26.1,0,76,0 ,29.3,0 ,61,0 ,28.5,0 ,28.3,0 
2004/8/1 2:30,25.9,0,76,0 ,29.3,0 ,61,0 ,28.5,0 ,28.3,0 
2004/8/1 2:45,25.9,0,76,0 ,29.3,0 ,61,0 ,28.5,0 ,28.3,0 
2004/8/1 3:00,25.6,0,78,0 ,29.3,0 ,60,0 ,28.4,0 ,28.3,0 
2004/8/1 3:15,25.4,0,79,0 ,29.3,0 ,60,0 ,28.4,0 ,28.3,0 
2004/8/1 3:30,25.4,0,79,0 ,29.3,0 ,61,0 ,28.3,0 ,28.3,0 
2004/8/1 3:45,25.4,0,79,0 ,29.3,0 ,61,0 ,28.3,0 ,28.3,0 
2004/8/1 4:00,25.3,0,79,0 ,29.3,0 ,60,0 ,28.3,0 ,28.3,0 
2004/8/1 4:15,25.1,0,80,0 ,29.2,0 ,60,0 ,28.3,0 ,28.3,0 
2004/8/1 4:30,25.1,0,80,0 ,29.3,0 ,61,0 ,28.3,0 ,28.4,0 
2004/8/1 4:45,24.9,0,80,0 ,29.3,0 ,61,0 ,28.2,0 ,28.4,0 
2004/8/1 5:00,25,0,80,0 ,29.3,0 ,62,0 ,28.2,0 ,28.4,0 
2004/8/1 5:15,25.1,0,79,0 ,29.3,0 ,61,0 ,28.2,0 ,28.4,0 
2004/8/1 5:30,25.6,0,77,0 ,29.3,0 ,61,0 ,28.2,0 ,28.4,0 
2004/8/1 5:45,26.2,0,74,0 ,29.4,0 ,60,0 ,28.1,0 ,28.4,0 
2004/8/1 6:00,26.7,0,72,0 ,29.5,0 ,61,0 ,28.2,0 ,28.4,0 
2004/8/1 6:15,27,0,71,0 ,29.6,0 ,60,0 ,28.3,0 ,28.5,0 
2004/8/1 6:30,27.4,0,69,0 ,29.8,0 ,61,0 ,28.4,0 ,28.5,0 
2004/8/1 6:45,28,0,66,0 ,29.9,0 ,61,0 ,28.4,0 ,28.5,0 
2004/8/1 7:00,28.3,0,64,0 ,30,0 ,62,0 ,28.6,0 ,28.5,0 
2004/8/1 7:15,28.6,0,62,0 ,30.1,0 ,61,0 ,28.6,0 ,28.5,0 
2004/8/1 7:30,28.6,0,62,0 ,30.2,0 ,61,0 ,28.7,0 ,28.5,0 
2004/8/1 7:45,29.6,0,59,0 ,30.3,0 ,61,0 ,28.7,0 ,28.6,0 
2004/8/1 8:00,30.4,0,56,0 ,30.3,0 ,61,0 ,28.8,0 ,28.6,0 
2004/8/1 8:15,30.9,0,54,0 ,30.4,0 ,60,0 ,28.8,0 ,28.7,0 
2004/8/1 8:30,31,0,52,0 ,30.5,0 ,60,0 ,29,0 ,28.7,0 
2004/8/1 8:45,31.4,0,50,0 ,30.5,0 ,59,0 ,29,0 ,28.7,0 
2004/8/1 9:00,33.1,0,45,0 ,30,0 ,52,0 ,28.9,0 ,28.8,0 
2004/8/1 9:15,32.9,0,45,0 ,29.5,0 ,49,0 ,28.9,0 ,28.8,0 
2004/8/1 9:30,33.4,0,44,0 ,29,0 ,46,0 ,28.8,0 ,28.8,0 
2004/8/1 9:45,35.1,0,40,0 ,28.7,0 ,46,0 ,28.8,0 ,28.8,0 
2004/8/1 10:00,33.6,0,44,0 ,28.7,0 ,49,0 ,28.8,0 ,28.7,0 
2004/8/1 10:15,32.8,0,45,0 ,28.5,0 ,48,0 ,28.8,0 ,28.6,0 
2004/8/1 10:30,34.1,0,43,0 ,28.3,0 ,47,0 ,28.8,0 ,28.5,0 
2004/8/1 10:45,34.4,0,41,0 ,28.1,0 ,47,0 ,28.7,0 ,28.5,0 
2004/8/1 11:00,33.6,0,43,0 ,28.4,0 ,53,0 ,28.8,0 ,28.4,0 
2004/8/1 11:15,33.2,0,43,0 ,28.6,0 ,53,0 ,28.8,0 ,28.4,0 
2004/8/1 11:30,33.6,0,42,0 ,28.5,0 ,52,0 ,28.9,0 ,28.5,0 
2004/8/1 11:45,34.3,0,40,0 ,28.5,0 ,52,0 ,29,0 ,28.5,0 
2004/8/1 12:00,34.5,0,39,0 ,28.6,0 ,51,0 ,29,0 ,28.5,0 
2004/8/1 12:15,34.9,0,38,0 ,28.6,0 ,51,0 ,29.1,0 ,28.5,0 
2004/8/1 12:30,33.1,0,41,0 ,28.3,0 ,49,0 ,29.2,0 ,28.5,0 
2004/8/1 12:45,35,0,39,0 ,28.2,0 ,49,0 ,29.3,0 ,28.5,0 
2004/8/1 13:00,34.2,0,40,0 ,27.8,0 ,45,0 ,29.2,0 ,28.5,0 
2004/8/1 13:15,33.5,0,40,0 ,27.7,0 ,45,0 ,29.1,0 ,28.4,0 
2004/8/1 13:30,32.8,0,41,0 ,28.3,0 ,52,0 ,29,0 ,28.4,0 
2004/8/1 13:45,33,0,42,0 ,28.6,0 ,56,0 ,29,0 ,28.4,0 
2004/8/1 14:00,33.7,0,39,0 ,28.6,0 ,53,0 ,28.9,0 ,28.4,0 
2004/8/1 14:15,33.6,0,40,0 ,28.1,0 ,48,0 ,28.8,0 ,28.3,0 
2004/8/1 14:30,34,0,39,0 ,27.9,0 ,49,0 ,28.8,0 ,28.1,0 
2004/8/1 14:45,33.7,0,40,0 ,28.1,0 ,51,0 ,28.7,0 ,28.2,0 
2004/8/1 15:00,33.9,0,40,0 ,28.4,0 ,52,0 ,28.8,0 ,28.2,0 
2004/8/1 15:15,33.5,0,39,0 ,28.3,0 ,52,0 ,28.8,0 ,28.2,0 
2004/8/1 15:30,34,0,39,0 ,28.3,0 ,52,0 ,28.7,0 ,28.2,0 
2004/8/1 15:45,33.3,0,40,0 ,28.3,0 ,53,0 ,28.7,0 ,28.2,0 
2004/8/1 16:00,33.5,0,39,0 ,28.3,0 ,52,0 ,28.7,0 ,28.2,0 
2004/8/1 16:15,33.6,0,40,0 ,28.2,0 ,52,0 ,28.7,0 ,28.2,0 
2004/8/1 16:30,33.5,0,41,0 ,28.2,0 ,52,0 ,28.6,0 ,28.2,0 
2004/8/1 16:45,33.4,0,41,0 ,28.2,0 ,52,0 ,28.6,0 ,28.2,0 
2004/8/1 17:00,32.8,0,43,0 ,28.2,0 ,54,0 ,28.6,0 ,28.2,0 
2004/8/1 17:15,33,0,43,0 ,28.3,0 ,53,0 ,28.6,0 ,28.1,0 
2004/8/1 17:30,32.5,0,45,0 ,28.2,0 ,53,0 ,28.7,0 ,28,0 
2004/8/1 17:45,31.9,0,48,0 ,28.1,0 ,51,0 ,28.8,0 ,28,0 
2004/8/1 18:00,32.3,0,46,0 ,28,0 ,50,0 ,28.8,0 ,28,0 
2004/8/1 18:15,31.5,0,48,0 ,28,0 ,51,0 ,28.7,0 ,28,0 
2004/8/1 18:30,31.6,0,47,0 ,28,0 ,51,0 ,28.7,0 ,28,0 
2004/8/1 18:45,31.2,0,48,0 ,28,0 ,52,0 ,28.7,0 ,28.1,0 
2004/8/1 19:00,31.2,0,47,0 ,28,0 ,52,0 ,28.6,0 ,28.1,0 
2004/8/1 19:15,31,0,48,0 ,28,0 ,52,0 ,28.6,0 ,28.1,0 
2004/8/1 19:30,30.7,0,48,0 ,27.9,0 ,52,0 ,28.6,0 ,28.1,0 
2004/8/1 19:45,30.6,0,48,0 ,27.9,0 ,52,0 ,28.6,0 ,28.1,0 
2004/8/1 20:00,30.5,0,49,0 ,28,0 ,53,0 ,28.5,0 ,28.1,0 
2004/8/1 20:15,30.1,0,50,0 ,28,0 ,53,0 ,28.5,0 ,28.1,0 
2004/8/1 20:30,29.7,0,52,0 ,28.1,0 ,53,0 ,28.5,0 ,28.1,0 
2004/8/1 20:45,29.9,0,51,0 ,28.1,0 ,53,0 ,28.5,0 ,28.1,0 
2004/8/1 21:00,29.9,0,51,0 ,28.2,0 ,53,0 ,28.5,0 ,28.1,0 
2004/8/1 21:15,29.4,0,53,0 ,28,0 ,51,0 ,28.5,0 ,28,0 
2004/8/1 21:30,29,0,54,0 ,27.7,0 ,50,0 ,28.4,0 ,28,0 
2004/8/1 21:45,29,0,55,0 ,27.7,0 ,53,0 ,28.4,0 ,28,0 
2004/8/1 22:00,28,0,57,0 ,27.9,0 ,56,0 ,28.3,0 ,28,0 
2004/8/1 22:15,27.6,0,59,0 ,28.2,0 ,60,0 ,28.4,0 ,28,0 
2004/8/1 22:30,27.6,0,59,0 ,28.4,0 ,59,0 ,28.5,0 ,27.9,0 
2004/8/1 22:45,27.5,0,59,0 ,28.4,0 ,59,0 ,28.5,0 ,27.9,0 
2004/8/1 23:00,27.4,0,59,0 ,28.5,0 ,59,0 ,28.5,0 ,28,0 
2004/8/1 23:15,27,0,62,0 ,28.7,0 ,58,0 ,28.5,0 ,28,0 
2004/8/1 23:30,26.9,0,63,0 ,28.7,0 ,59,0 ,28.6,0 ,28,0 
2004/8/1 23:45,26.7,0,64,0 ,28.8,0 ,59,0 ,28.6,0 ,28,0 
2004/8/2 0:00,26.5,0,64,0 ,28.9,0 ,59,0 ,28.6,0 ,28,0 
2004/8/2 0:15,26.2,0,66,0 ,29,0 ,59,0 ,28.6,0 ,28.1,0 
2004/8/2 0:30,26,0,68,0 ,29,0 ,59,0 ,28.6,0 ,28.1,0 
2004/8/2 0:45,25.9,0,69,0 ,29,0 ,59,0 ,28.6,0 ,28.1,0 
2004/8/2 1:00,25.9,0,69,0 ,29.1,0 ,59,0 ,28.7,0 ,28.1,0 
2004/8/2 1:15,25.7,0,70,0 ,29.1,0 ,59,0 ,28.7,0 ,28.3,0 
2004/8/2 1:30,25.2,0,73,0 ,29.1,0 ,60,0 ,28.7,0 ,28.3,0 
2004/8/2 1:45,25.3,0,72,0 ,29.1,0 ,61,0 ,28.7,0 ,28.3,0 
2004/8/2 2:00,25.1,0,73,0 ,29.1,0 ,61,0 ,28.7,0 ,28.3,0 
2004/8/2 2:15,25.1,0,73,0 ,29.1,0 ,61,0 ,28.7,0 ,28.4,0 
2004/8/2 2:30,25.1,0,73,0 ,29.1,0 ,61,0 ,28.7,0 ,28.4,0 
2004/8/2 2:45,25.2,0,73,0 ,29.1,0 ,61,0 ,28.7,0 ,28.4,0 
2004/8/2 3:00,25.2,0,73,0 ,29.1,0 ,61,0 ,28.7,0 ,28.4,0 
2004/8/2 3:15,25.1,0,73,0 ,29.1,0 ,61,0 ,28.7,0 ,28.4,0 
2004/8/2 3:30,25.1,0,74,0 ,29.1,0 ,61,0 ,28.7,0 ,28.5,0 
2004/8/2 3:45,25.1,0,74,0 ,29.1,0 ,61,0 ,28.7,0 ,28.5,0 
2004/8/2 4:00,25,0,73,0 ,29.1,0 ,61,0 ,28.7,0 ,28.5,0 
2004/8/2 4:15,24.8,0,73,0 ,29.1,0 ,61,0 ,28.7,0 ,28.5,0 
2004/8/2 4:30,24.7,0,76,0 ,29.1,0 ,61,0 ,28.7,0 ,28.5,0 
2004/8/2 4:45,24.8,0,76,0 ,29.1,0 ,61,0 ,28.8,0 ,28.5,0 
2004/8/2 5:00,24.7,0,74,0 ,29.1,0 ,61,0 ,28.8,0 ,28.5,0 
2004/8/2 5:15,24.7,0,76,0 ,29.2,0 ,61,0 ,28.8,0 ,28.5,0 
2004/8/2 5:30,25.2,0,74,0 ,29.3,0 ,61,0 ,28.8,0 ,28.5,0 
2004/8/2 5:45,25.3,0,74,0 ,29.4,0 ,61,0 ,28.8,0 ,28.6,0 
2004/8/2 6:00,27.1,0,65,0 ,29.2,0 ,57,0 ,28.8,0 ,28.4,0 
2004/8/2 6:15,28.3,0,60,0 ,28.8,0 ,52,0 ,28.7,0 ,28.2,0 
2004/8/2 6:30,27.8,0,62,0 ,28.6,0 ,49,0 ,28.7,0 ,28.2,0 
2004/8/2 6:45,28.2,0,59,0 ,28.5,0 ,47,0 ,28.6,0 ,28.2,0 
2004/8/2 7:00,28,0,60,0 ,28.7,0 ,51,0 ,28.6,0 ,28,0 
2004/8/2 7:15,28.1,0,59,0 ,28.9,0 ,53,0 ,28.6,0 ,28,0 
2004/8/2 7:30,29.1,0,56,0 ,29,0 ,53,0 ,28.5,0 ,28,0 
2004/8/2 7:45,28.9,0,56,0 ,29.5,0 ,57,0 ,28.5,0 ,28,0 
2004/8/2 8:00,28.8,0,56,0 ,29.6,0 ,57,0 ,28.5,0 ,28,0 
2004/8/2 8:15,29.1,0,55,0 ,29.8,0 ,57,0 ,28.4,0 ,28.1,0 
2004/8/2 8:30,30,0,52,0 ,29.8,0 ,56,0 ,28.5,0 ,28.1,0 
2004/8/2 8:45,30.3,0,51,0 ,29.9,0 ,55,0 ,28.5,0 ,28.1,0 
2004/8/2 9:00,30.4,0,48,0 ,29.9,0 ,54,0 ,28.5,0 ,28.2,0 
2004/8/2 9:15,31,0,44,0 ,29.9,0 ,53,0 ,28.5,0 ,28.2,0 
2004/8/2 9:30,31.6,0,44,0 ,29.9,0 ,53,0 ,28.5,0 ,28.2,0 
2004/8/2 9:45,32.1,0,41,0 ,29.9,0 ,52,0 ,28.5,0 ,28.3,0 
2004/8/2 10:00,32.3,0,41,0 ,30,0 ,52,0 ,28.6,0 ,28.3,0 
2004/8/2 10:15,32.3,0,41,0 ,30,0 ,51,0 ,28.6,0 ,28.3,0 
2004/8/2 10:30,32.7,0,40,0 ,30,0 ,51,0 ,28.7,0 ,28.4,0 
2004/8/2 10:45,32.2,0,40,0 ,30,0 ,50,0 ,28.7,0 ,28.4,0 
2004/8/2 11:00,32.8,0,39,0 ,30,0 ,50,0 ,28.8,0 ,28.4,0 
2004/8/2 11:15,32.6,0,40,0 ,30,0 ,50,0 ,28.8,0 ,28.4,0 
2004/8/2 11:30,32.1,0,41,0 ,30.1,0 ,50,0 ,28.9,0 ,28.5,0 
2004/8/2 11:45,32.1,0,42,0 ,30.1,0 ,50,0 ,28.9,0 ,28.5,0 
2004/8/2 12:00,32.1,0,41,0 ,30.1,0 ,51,0 ,29,0 ,28.5,0 
2004/8/2 12:15,32.5,0,41,0 ,30.2,0 ,51,0 ,29.1,0 ,28.5,0 
2004/8/2 12:30,32,0,40,0 ,30.2,0 ,49,0 ,29.1,0 ,28.6,0 
2004/8/2 12:45,32.5,0,40,0 ,30.2,0 ,49,0 ,29.2,0 ,28.6,0 
2004/8/2 13:00,32.4,0,38,0 ,30.2,0 ,49,0 ,29.3,0 ,28.6,0 
2004/8/2 13:15,32.5,0,39,0 ,30.3,0 ,49,0 ,29.3,0 ,28.6,0 
2004/8/2 13:30,32.5,0,39,0 ,30.4,0 ,48,0 ,29.4,0 ,28.7,0 
2004/8/2 13:45,32.5,0,39,0 ,30.4,0 ,48,0 ,29.5,0 ,28.7,0 
2004/8/2 14:00,32.7,0,38,0 ,30.4,0 ,48,0 ,29.5,0 ,28.7,0 
2004/8/2 14:15,32.8,0,38,0 ,30.4,0 ,48,0 ,29.6,0 ,28.8,0 
2004/8/2 14:30,32.8,0,39,0 ,30.5,0 ,49,0 ,29.6,0 ,28.8,0 
2004/8/2 14:45,32.7,0,39,0 ,30.5,0 ,48,0 ,29.6,0 ,28.9,0 
2004/8/2 15:00,32.9,0,39,0 ,30.5,0 ,49,0 ,29.7,0 ,28.9,0 
2004/8/2 15:15,32.7,0,39,0 ,30.6,0 ,50,0 ,29.8,0 ,28.9,0 
2004/8/2 15:30,32.6,0,40,0 ,30.7,0 ,49,0 ,29.8,0 ,29,0 
2004/8/2 15:45,32.1,0,41,0 ,30.6,0 ,49,0 ,29.8,0 ,29,0 
2004/8/2 16:00,32.3,0,41,0 ,30.5,0 ,49,0 ,29.8,0 ,29,0 
2004/8/2 16:15,31.9,0,42,0 ,30.6,0 ,49,0 ,29.8,0 ,29.1,0 
2004/8/2 16:30,32.1,0,40,0 ,30.6,0 ,49,0 ,29.9,0 ,29.1,0 
2004/8/2 16:45,32.1,0,40,0 ,30.6,0 ,48,0 ,29.9,0 ,29.1,0 
2004/8/2 17:00,32,0,40,0 ,30.6,0 ,48,0 ,29.9,0 ,29.1,0 
2004/8/2 17:15,31.9,0,41,0 ,30.5,0 ,48,0 ,30,0 ,29.2,0 
2004/8/2 17:30,31.8,0,41,0 ,30.6,0 ,48,0 ,30,0 ,29.2,0 
2004/8/2 17:45,31.5,0,40,0 ,30.5,0 ,48,0 ,30.1,0 ,29.2,0 
2004/8/2 18:00,31.4,0,39,0 ,30.5,0 ,46,0 ,30.2,0 ,29,0 
2004/8/2 18:15,31.3,0,39,0 ,30.6,0 ,49,0 ,30.3,0 ,29,0 
2004/8/2 18:30,30.5,0,49,0 ,30.6,0 ,51,0 ,30.3,0 ,29.1,0 
2004/8/2 18:45,29.7,0,56,0 ,30.6,0 ,54,0 ,30.2,0 ,29.1,0 
2004/8/2 19:00,31.1,0,54,0 ,30.4,0 ,54,0 ,30.2,0 ,29.2,0 
2004/8/2 19:15,31,0,53,0 ,29.9,0 ,49,0 ,30.1,0 ,29.2,0 
2004/8/2 19:30,30.2,0,55,0 ,29.5,0 ,48,0 ,30,0 ,29.2,0 
2004/8/2 19:45,31,0,52,0 ,29.3,0 ,46,0 ,29.9,0 ,29.2,0 
2004/8/2 20:00,30.9,0,53,0 ,29.2,0 ,48,0 ,29.8,0 ,29.1,0 
2004/8/2 20:15,30.4,0,54,0 ,29.1,0 ,48,0 ,29.7,0 ,29.1,0 
2004/8/2 20:30,30.2,0,55,0 ,29,0 ,48,0 ,29.6,0 ,29.1,0 
2004/8/2 20:45,29.2,0,58,0 ,29,0 ,49,0 ,29.6,0 ,28.4,0 
2004/8/2 21:00,29.9,0,57,0 ,28.8,0 ,48,0 ,29.5,0 ,28.4,0 
2004/8/2 21:15,29.8,0,58,0 ,28.7,0 ,48,0 ,29.5,0 ,28.5,0 
2004/8/2 21:30,28,0,64,0 ,29,0 ,53,0 ,29.4,0 ,28.5,0 
2004/8/2 21:45,27.5,0,66,0 ,29.3,0 ,59,0 ,29.4,0 ,28.5,0 
2004/8/2 22:00,27.2,0,67,0 ,29.4,0 ,61,0 ,29.4,0 ,28.5,0 
2004/8/2 22:15,27.2,0,66,0 ,29.3,0 ,61,0 ,29.3,0 ,28.5,0 
2004/8/2 22:30,27,0,68,0 ,29.4,0 ,59,0 ,29.3,0 ,28.6,0 
2004/8/2 22:45,26.6,0,71,0 ,29.5,0 ,57,0 ,29.2,0 ,28.6,0 
2004/8/2 23:00,26,0,73,0 ,29.4,0 ,59,0 ,29.1,0 ,28.6,0 
2004/8/2 23:15,26.1,0,73,0 ,29.4,0 ,59,0 ,29.1,0 ,28.6,0 
2004/8/2 23:30,25.7,0,74,0 ,29.3,0 ,59,0 ,29,0 ,28.6,0 
2004/8/2 23:45,25.7,0,74,0 ,29.3,0 ,59,0 ,29,0 ,28.6,0 
2004/8/3 0:00,25.6,0,74,0 ,29.3,0 ,58,0 ,29,0 ,28.6,0 
2004/8/3 0:15,25.6,0,74,0 ,29.3,0 ,59,0 ,28.9,0 ,28.6,0 
2004/8/3 0:30,25.6,0,74,0 ,29.2,0 ,59,0 ,28.9,0 ,28.6,0 
2004/8/3 0:45,25.5,0,74,0 ,29.2,0 ,59,0 ,28.9,0 ,28.6,0 
2004/8/3 1:00,25.3,0,75,0 ,29.2,0 ,60,0 ,28.9,0 ,28.6,0 
2004/8/3 1:15,25.5,0,74,0 ,29.1,0 ,60,0 ,28.9,0 ,28.6,0 
2004/8/3 1:30,25.3,0,74,0 ,29.1,0 ,60,0 ,28.9,0 ,28.6,0 
2004/8/3 1:45,25.1,0,75,0 ,29.1,0 ,60,0 ,28.8,0 ,28.6,0 
2004/8/3 2:00,24.9,0,76,0 ,29.1,0 ,60,0 ,28.8,0 ,28.6,0 
2004/8/3 2:15,24.8,0,77,0 ,29.1,0 ,59,0 ,28.8,0 ,28.6,0 
2004/8/3 2:30,24.7,0,77,0 ,29,0 ,60,0 ,28.8,0 ,28.6,0 
2004/8/3 2:45,24.7,0,77,0 ,29,0 ,60,0 ,28.8,0 ,28.6,0 
2004/8/3 3:00,24.6,0,78,0 ,29,0 ,59,0 ,28.7,0 ,28.6,0 
2004/8/3 3:15,24.5,0,78,0 ,29,0 ,59,0 ,28.7,0 ,28.6,0 
2004/8/3 3:30,24.4,0,79,0 ,29,0 ,59,0 ,28.7,0 ,28.6,0 
2004/8/3 3:45,24.2,0,80,0 ,29,0 ,59,0 ,28.7,0 ,28.6,0 
2004/8/3 4:00,24.1,0,80,0 ,29,0 ,59,0 ,28.6,0 ,28.6,0 
2004/8/3 4:15,24.1,0,80,0 ,29,0 ,58,0 ,28.6,0 ,28.6,0 
2004/8/3 4:30,24.1,0,79,0 ,29,0 ,58,0 ,28.6,0 ,28.6,0 
2004/8/3 4:45,24.1,0,78,0 ,29.1,0 ,58,0 ,28.6,0 ,28.6,0 
2004/8/3 5:00,24.3,0,75,0 ,29,0 ,58,0 ,28.6,0 ,28.6,0 
2004/8/3 5:15,24.7,0,73,0 ,29.1,0 ,57,0 ,28.5,0 ,28.6,0 
2004/8/3 5:30,25.2,0,71,0 ,29.1,0 ,57,0 ,28.5,0 ,28.6,0 
2004/8/3 5:45,25.9,0,67,0 ,29.2,0 ,56,0 ,28.5,0 ,28.6,0 
2004/8/3 6:00,26.2,0,66,0 ,29.2,0 ,56,0 ,28.5,0 ,28.5,0 
2004/8/3 6:15,26,0,65,0 ,29.3,0 ,57,0 ,28.3,0 ,28.3,0 
2004/8/3 6:30,26,0,65,0 ,29,0 ,57,0 ,27.9,0 ,28.3,0 
2004/8/3 6:45,25.7,0,70,0 ,28.8,0 ,58,0 ,28,0 ,28.3,0 
2004/8/3 7:00,26.3,0,68,0 ,28.8,0 ,59,0 ,28.1,0 ,28.1,0 
2004/8/3 7:15,26.6,0,66,0 ,28.9,0 ,59,0 ,28.1,0 ,28.1,0 
2004/8/3 7:30,27.1,0,64,0 ,29,0 ,59,0 ,28.2,0 ,28.2,0 
2004/8/3 7:45,27.3,0,62,0 ,29.1,0 ,58,0 ,28.2,0 ,28.1,0 
2004/8/3 8:00,27.4,0,61,0 ,29.2,0 ,58,0 ,28.3,0 ,28.1,0 
2004/8/3 8:15,27.7,0,60,0 ,29.3,0 ,57,0 ,28.3,0 ,28.1,0 
2004/8/3 8:30,28.8,0,57,0 ,29.4,0 ,57,0 ,28.4,0 ,28.1,0 
2004/8/3 8:45,29.9,0,54,0 ,29.5,0 ,57,0 ,28.4,0 ,28.1,0 
2004/8/3 9:00,29.7,0,53,0 ,29.6,0 ,56,0 ,28.5,0 ,28.2,0 
2004/8/3 9:15,30.7,0,51,0 ,29.7,0 ,56,0 ,28.5,0 ,28.2,0 
2004/8/3 9:30,30.9,0,48,0 ,29.7,0 ,56,0 ,28.6,0 ,28.2,0 
2004/8/3 9:45,31.1,0,47,0 ,29.8,0 ,55,0 ,28.6,0 ,28.3,0 
2004/8/3 10:00,31.5,0,45,0 ,29.8,0 ,54,0 ,28.7,0 ,28.3,0 
2004/8/3 10:15,31.3,0,46,0 ,29.8,0 ,54,0 ,28.7,0 ,28.3,0 
2004/8/3 10:30,32.5,0,42,0 ,29.8,0 ,53,0 ,28.7,0 ,28.4,0 
2004/8/3 10:45,33.1,0,40,0 ,29.9,0 ,53,0 ,28.8,0 ,28.4,0 
2004/8/3 11:00,32.4,0,40,0 ,29.9,0 ,51,0 ,28.9,0 ,28.4,0 
2004/8/3 11:15,31.6,0,42,0 ,30,0 ,51,0 ,28.9,0 ,28.5,0 
2004/8/3 11:30,31.8,0,42,0 ,30,0 ,51,0 ,29,0 ,28.5,0 
2004/8/3 11:45,31.7,0,42,0 ,30,0 ,50,0 ,29,0 ,28.5,0 
2004/8/3 12:00,31.8,0,40,0 ,30,0 ,50,0 ,29.1,0 ,28.5,0 
2004/8/3 12:15,31.7,0,41,0 ,30.1,0 ,49,0 ,29.2,0 ,28.6,0 
2004/8/3 12:30,32,0,42,0 ,30.1,0 ,51,0 ,29.3,0 ,28.6,0 
2004/8/3 12:45,31.8,0,43,0 ,30.2,0 ,51,0 ,29.3,0 ,28.6,0 
2004/8/3 13:00,32.3,0,40,0 ,30.2,0 ,50,0 ,29.5,0 ,28.7,0 
2004/8/3 13:15,32.5,0,40,0 ,30.3,0 ,50,0 ,29.6,0 ,28.7,0 
2004/8/3 13:30,32.2,0,40,0 ,30.3,0 ,50,0 ,29.7,0 ,28.7,0 
2004/8/3 13:45,32.3,0,41,0 ,30.3,0 ,49,0 ,29.7,0 ,28.8,0 
2004/8/3 14:00,32.5,0,41,0 ,30.4,0 ,50,0 ,30,0 ,28.8,0 
2004/8/3 14:15,32.2,0,41,0 ,30.4,0 ,51,0 ,30.1,0 ,28.8,0 
2004/8/3 14:30,32.3,0,41,0 ,30.4,0 ,50,0 ,30.2,0 ,28.8,0 
2004/8/3 14:45,32.5,0,41,0 ,30.5,0 ,50,0 ,30.2,0 ,28.9,0 
2004/8/3 15:00,32.5,0,41,0 ,30.5,0 ,50,0 ,30.2,0 ,28.9,0 
2004/8/3 15:15,32.5,0,42,0 ,30.5,0 ,50,0 ,30.2,0 ,28.9,0 
2004/8/3 15:30,32.6,0,41,0 ,30.6,0 ,51,0 ,30.2,0 ,29,0 
2004/8/3 15:45,32.3,0,43,0 ,30.5,0 ,51,0 ,30.3,0 ,29,0 
2004/8/3 16:00,32.4,0,44,0 ,30.6,0 ,52,0 ,30.3,0 ,29,0 
2004/8/3 16:15,32.4,0,44,0 ,30.6,0 ,52,0 ,30.3,0 ,29.1,0 
2004/8/3 16:30,32.2,0,45,0 ,30.7,0 ,53,0 ,30.3,0 ,29.1,0 
2004/8/3 16:45,32.3,0,46,0 ,30.6,0 ,53,0 ,30.4,0 ,29.1,0 
2004/8/3 17:00,32,0,47,0 ,30.7,0 ,54,0 ,30.4,0 ,29.1,0 
2004/8/3 17:15,32,0,47,0 ,30.6,0 ,54,0 ,30.5,0 ,29.2,0 
2004/8/3 17:30,31.9,0,48,0 ,30.6,0 ,54,0 ,30.6,0 ,29.2,0 
2004/8/3 17:45,31.7,0,48,0 ,30.7,0 ,55,0 ,30.6,0 ,29.2,0 
2004/8/3 18:00,31.7,0,49,0 ,30.6,0 ,55,0 ,30.6,0 ,29.3,0 
2004/8/3 18:15,30.9,0,54,0 ,30.6,0 ,56,0 ,30.6,0 ,29.3,0 
2004/8/3 18:30,30.7,0,56,0 ,30.5,0 ,58,0 ,30.5,0 ,29.3,0 
2004/8/3 18:45,30.3,0,58,0 ,30.6,0 ,59,0 ,30.5,0 ,29.3,0 
2004/8/3 19:00,30,0,59,0 ,30.5,0 ,59,0 ,30.4,0 ,29.4,0 
2004/8/3 19:15,29.8,0,60,0 ,30.5,0 ,60,0 ,30.4,0 ,29.4,0 
2004/8/3 19:30,29.7,0,60,0 ,30.5,0 ,60,0 ,30.3,0 ,29.4,0 
2004/8/3 19:45,29.7,0,60,0 ,30.5,0 ,61,0 ,30.3,0 ,29.4,0 
2004/8/3 20:00,30.6,0,57,0 ,30.1,0 ,55,0 ,30.3,0 ,29.5,0 
2004/8/3 20:15,30.6,0,57,0 ,29.8,0 ,53,0 ,30.2,0 ,29,0 
2004/8/3 20:30,30.3,0,58,0 ,29.8,0 ,53,0 ,30.1,0 ,29,0 
2004/8/3 20:45,29.8,0,59,0 ,29.6,0 ,53,0 ,30,0 ,29.1,0 
2004/8/3 21:00,29,0,62,0 ,29.8,0 ,57,0 ,29.9,0 ,29.1,0 
2004/8/3 21:15,28.6,0,63,0 ,29.8,0 ,59,0 ,29.9,0 ,29.1,0 
2004/8/3 21:30,28.8,0,63,0 ,29.8,0 ,59,0 ,29.8,0 ,29.1,0 
2004/8/3 21:45,29.1,0,64,0 ,29.8,0 ,61,0 ,29.8,0 ,28.7,0 
2004/8/3 22:00,30.4,0,59,0 ,29.2,0 ,51,0 ,29.7,0 ,28.7,0 
2004/8/3 22:15,30.1,0,60,0 ,28.7,0 ,47,0 ,29.7,0 ,28.7,0 
2004/8/3 22:30,29.9,0,60,0 ,28.5,0 ,44,0 ,29.5,0 ,28.5,0 
2004/8/3 22:45,30.3,0,59,0 ,28.3,0 ,43,0 ,29.5,0 ,28.4,0 
2004/8/3 23:00,30.4,0,58,0 ,28.1,0 ,44,0 ,29.4,0 ,28.4,0 
2004/8/3 23:15,29.9,0,60,0 ,27.8,0 ,43,0 ,29.2,0 ,28.3,0 
2004/8/3 23:30,27.7,0,69,0 ,28.4,0 ,51,0 ,29.1,0 ,28.3,0 
2004/8/3 23:45,27.5,0,70,0 ,28.7,0 ,57,0 ,29,0 ,28.3,0 
2004/8/4 0:00,27.5,0,70,0 ,28.8,0 ,57,0 ,29,0 ,28.3,0 
2004/8/4 0:15,27.1,0,71,0 ,28.9,0 ,55,0 ,29,0 ,28.3,0 
2004/8/4 0:30,26.8,0,72,0 ,29,0 ,54,0 ,29,0 ,28.4,0 
2004/8/4 0:45,26.6,0,73,0 ,29.1,0 ,53,0 ,29,0 ,28.4,0 
2004/8/4 1:00,26.4,0,74,0 ,29.2,0 ,52,0 ,29,0 ,28.4,0 
2004/8/4 1:15,26.3,0,74,0 ,29.2,0 ,52,0 ,29,0 ,28.4,0 
2004/8/4 1:30,26.3,0,74,0 ,29.2,0 ,52,0 ,29,0 ,28.4,0 
2004/8/4 1:45,26.3,0,74,0 ,29.2,0 ,52,0 ,29,0 ,28.4,0 
2004/8/4 2:00,26.6,0,73,0 ,29.2,0 ,52,0 ,29,0 ,28.4,0 
2004/8/4 2:15,26.6,0,73,0 ,29.2,0 ,52,0 ,28.9,0 ,28.4,0 
2004/8/4 2:30,26.5,0,74,0 ,29.2,0 ,52,0 ,28.9,0 ,28.5,0 
2004/8/4 2:45,26.4,0,74,0 ,29.2,0 ,52,0 ,28.9,0 ,28.5,0 
2004/8/4 3:00,26.3,0,75,0 ,29.2,0 ,52,0 ,28.9,0 ,28.5,0 
2004/8/4 3:15,26,0,76,0 ,29.3,0 ,52,0 ,28.9,0 ,28.5,0 
2004/8/4 3:30,26.3,0,75,0 ,29.2,0 ,52,0 ,28.9,0 ,28.5,0 
2004/8/4 3:45,26.1,0,76,0 ,29.2,0 ,52,0 ,28.9,0 ,28.5,0 
2004/8/4 4:00,26,0,77,0 ,29.3,0 ,53,0 ,28.9,0 ,28.5,0 
2004/8/4 4:15,25.9,0,76,0 ,29.3,0 ,53,0 ,28.9,0 ,28.5,0 
2004/8/4 4:30,25.8,0,76,0 ,29.3,0 ,54,0 ,28.8,0 ,28.5,0 
2004/8/4 4:45,25.7,0,76,0 ,29.3,0 ,54,0 ,28.8,0 ,28.5,0 
2004/8/4 5:00,25.7,0,75,0 ,29.3,0 ,53,0 ,28.8,0 ,28.5,0 
2004/8/4 5:15,25.9,0,74,0 ,29.3,0 ,54,0 ,28.8,0 ,28.5,0 
2004/8/4 5:30,26,0,74,0 ,29.3,0 ,54,0 ,28.8,0 ,28.5,0 
2004/8/4 5:45,25.9,0,74,0 ,29.3,0 ,53,0 ,28.8,0 ,28.5,0 
2004/8/4 6:00,25.7,0,74,0 ,29.3,0 ,53,0 ,28.8,0 ,28.5,0 
2004/8/4 6:15,25.6,0,75,0 ,29.3,0 ,57,0 ,28.9,0 ,28.3,0 
2004/8/4 6:30,25.6,0,76,0 ,29.1,0 ,61,0 ,28.9,0 ,28.2,0 
2004/8/4 6:45,25.8,0,75,0 ,29.1,0 ,61,0 ,28.6,0 ,28.2,0 
2004/8/4 7:00,25.9,0,75,0 ,29.1,0 ,62,0 ,28.5,0 ,28.2,0 
2004/8/4 7:15,26.3,0,74,0 ,29.1,0 ,63,0 ,28.3,0 ,28.2,0 
2004/8/4 7:30,26.5,0,73,0 ,29.1,0 ,63,0 ,28.3,0 ,28.3,0 
2004/8/4 7:45,27,0,72,0 ,29.2,0 ,63,0 ,28.3,0 ,28.1,0 
2004/8/4 8:00,27.3,0,68,0 ,29.3,0 ,62,0 ,28.4,0 ,28.1,0 
2004/8/4 8:15,27.6,0,67,0 ,29.3,0 ,62,0 ,28.3,0 ,28.2,0 
2004/8/4 8:30,28,0,64,0 ,29.4,0 ,61,0 ,28.3,0 ,28.2,0 
2004/8/4 8:45,29.4,0,60,0 ,29.5,0 ,61,0 ,28.4,0 ,28.2,0 
2004/8/4 9:00,28.7,0,61,0 ,29.5,0 ,60,0 ,28.5,0 ,28.2,0 
2004/8/4 9:15,28.6,0,61,0 ,29.6,0 ,60,0 ,28.5,0 ,28.3,0 
2004/8/4 9:30,29.1,0,58,0 ,29.6,0 ,60,0 ,28.5,0 ,28.3,0 
2004/8/4 9:45,29.7,0,56,0 ,29.7,0 ,59,0 ,28.6,0 ,28.3,0 
2004/8/4 10:00,29.4,0,55,0 ,29.7,0 ,58,0 ,28.6,0 ,28.4,0 
2004/8/4 10:15,29.6,0,54,0 ,29.7,0 ,57,0 ,28.7,0 ,28.4,0 
2004/8/4 10:30,29.8,0,52,0 ,29.8,0 ,57,0 ,28.7,0 ,28.4,0 
2004/8/4 10:45,30.2,0,51,0 ,29.8,0 ,56,0 ,28.8,0 ,28.5,0 
2004/8/4 11:00,30.1,0,53,0 ,29.9,0 ,56,0 ,28.9,0 ,28.5,0 
2004/8/4 11:15,30.3,0,52,0 ,29.9,0 ,56,0 ,29,0 ,28.5,0 
2004/8/4 11:30,30.6,0,51,0 ,30,0 ,56,0 ,29,0 ,28.5,0 
2004/8/4 11:45,31.1,0,49,0 ,30,0 ,56,0 ,29.1,0 ,28.6,0 
2004/8/4 12:00,31.5,0,48,0 ,30.1,0 ,56,0 ,29.2,0 ,28.6,0 
2004/8/4 12:15,31.2,0,48,0 ,30.2,0 ,55,0 ,29.2,0 ,28.6,0 
2004/8/4 12:30,31.6,0,48,0 ,30.2,0 ,55,0 ,29.3,0 ,28.7,0 
2004/8/4 12:45,31.4,0,49,0 ,30.3,0 ,55,0 ,29.4,0 ,28.7,0 
2004/8/4 13:00,31.3,0,49,0 ,30.3,0 ,56,0 ,29.4,0 ,28.7,0 
2004/8/4 13:15,31.9,0,49,0 ,30.3,0 ,57,0 ,29.5,0 ,28.8,0 
2004/8/4 13:30,31.5,0,50,0 ,30.3,0 ,57,0 ,29.6,0 ,28.8,0 
2004/8/4 13:45,31.4,0,49,0 ,30.4,0 ,56,0 ,29.7,0 ,28.8,0 
2004/8/4 14:00,31.5,0,50,0 ,30.4,0 ,56,0 ,29.8,0 ,28.9,0 
2004/8/4 14:15,31.9,0,49,0 ,30.5,0 ,57,0 ,29.8,0 ,28.9,0 
2004/8/4 14:30,31.9,0,47,0 ,30.5,0 ,57,0 ,29.9,0 ,28.9,0 
2004/8/4 14:45,32.3,0,46,0 ,30.6,0 ,55,0 ,29.9,0 ,29,0 
2004/8/4 15:00,32.1,0,46,0 ,30.5,0 ,55,0 ,29.9,0 ,29,0 
2004/8/4 15:15,32,0,46,0 ,30.5,0 ,54,0 ,29.9,0 ,29,0 
2004/8/4 15:30,31.9,0,47,0 ,30.5,0 ,54,0 ,30,0 ,29.1,0 
2004/8/4 15:45,32,0,47,0 ,30.6,0 ,55,0 ,30,0 ,29.1,0 
2004/8/4 16:00,31.8,0,46,0 ,30.6,0 ,55,0 ,30,0 ,29.1,0 
2004/8/4 16:15,32,0,46,0 ,30.6,0 ,54,0 ,30,0 ,29.2,0 
2004/8/4 16:30,31.7,0,48,0 ,30.5,0 ,54,0 ,30,0 ,29.2,0 
2004/8/4 16:45,31.6,0,48,0 ,30.6,0 ,55,0 ,30,0 ,29.2,0 
2004/8/4 17:00,31.7,0,48,0 ,30.6,0 ,55,0 ,30,0 ,29.2,0 
2004/8/4 17:15,31.6,0,48,0 ,30.6,0 ,55,0 ,30,0 ,29.3,0 
2004/8/4 17:30,31.6,0,49,0 ,30.5,0 ,55,0 ,30.2,0 ,29.3,0 
2004/8/4 17:45,31.4,0,50,0 ,30.5,0 ,55,0 ,30.4,0 ,29.3,0 
2004/8/4 18:00,31.3,0,50,0 ,30.6,0 ,56,0 ,30.4,0 ,29.3,0 
2004/8/4 18:15,31.1,0,51,0 ,30.5,0 ,56,0 ,30.5,0 ,29.4,0 
2004/8/4 18:30,30.8,0,55,0 ,30.5,0 ,58,0 ,30.4,0 ,29.4,0 
2004/8/4 18:45,30.6,0,56,0 ,30.5,0 ,59,0 ,30.4,0 ,29.4,0 
2004/8/4 19:00,30.5,0,57,0 ,30.5,0 ,60,0 ,30.4,0 ,29.4,0 
2004/8/4 19:15,32.6,0,50,0 ,30.4,0 ,58,0 ,30.4,0 ,29.5,0 
2004/8/4 19:30,33.7,0,48,0 ,29.9,0 ,54,0 ,30.3,0 ,29.5,0 
2004/8/4 19:45,31.9,0,53,0 ,29.5,0 ,50,0 ,30.2,0 ,29.5,0 
2004/8/4 20:00,29.7,0,61,0 ,29.3,0 ,51,0 ,30.1,0 ,29.1,0 
2004/8/4 20:15,29.7,0,61,0 ,29.1,0 ,51,0 ,29.9,0 ,29.1,0 
2004/8/4 20:30,29.3,0,63,0 ,28.9,0 ,52,0 ,29.8,0 ,29.2,0 
2004/8/4 20:45,28.2,0,68,0 ,29.3,0 ,57,0 ,29.7,0 ,28.8,0 
2004/8/4 21:00,28.2,0,65,0 ,29.4,0 ,60,0 ,29.7,0 ,28.7,0 
2004/8/4 21:15,28.2,0,66,0 ,29.5,0 ,61,0 ,29.6,0 ,28.8,0 
2004/8/4 21:30,29.3,0,62,0 ,29.1,0 ,55,0 ,29.6,0 ,28.6,0 
2004/8/4 21:45,28.3,0,65,0 ,28.9,0 ,54,0 ,29.5,0 ,28.6,0 
2004/8/4 22:00,27.5,0,69,0 ,29,0 ,56,0 ,29.4,0 ,28.6,0 
2004/8/4 22:15,27.3,0,70,0 ,29.3,0 ,60,0 ,29.3,0 ,28.6,0 
2004/8/4 22:30,27.2,0,70,0 ,29.4,0 ,61,0 ,29.3,0 ,28.7,0 
2004/8/4 22:45,27.1,0,71,0 ,29.5,0 ,61,0 ,29.3,0 ,28.7,0 
2004/8/4 23:00,26.8,0,72,0 ,29.5,0 ,60,0 ,29.2,0 ,28.7,0 
2004/8/4 23:15,26.7,0,73,0 ,29.5,0 ,58,0 ,29.2,0 ,28.7,0 
2004/8/4 23:30,26.4,0,74,0 ,29.6,0 ,57,0 ,29.2,0 ,28.7,0 
2004/8/4 23:45,26.4,0,74,0 ,29.5,0 ,56,0 ,29.2,0 ,28.7,0 
2004/8/5 0:00,26.3,0,74,0 ,29.5,0 ,54,0 ,29.1,0 ,28.7,0 
2004/8/5 0:15,26.3,0,74,0 ,29.5,0 ,53,0 ,29.1,0 ,28.7,0 
2004/8/5 0:30,26.2,0,74,0 ,29.5,0 ,53,0 ,29,0 ,28.7,0 
2004/8/5 0:45,26.2,0,74,0 ,29.5,0 ,54,0 ,29,0 ,28.7,0 
2004/8/5 1:00,26.1,0,74,0 ,29.5,0 ,54,0 ,29,0 ,28.7,0 
2004/8/5 1:15,26.1,0,74,0 ,29.4,0 ,54,0 ,28.9,0 ,28.7,0 
2004/8/5 1:30,26.1,0,75,0 ,29.4,0 ,55,0 ,28.9,0 ,28.7,0 
2004/8/5 1:45,26.1,0,75,0 ,29.5,0 ,54,0 ,28.9,0 ,28.7,0 
2004/8/5 2:00,26.1,0,75,0 ,29.5,0 ,55,0 ,28.9,0 ,28.7,0 
2004/8/5 2:15,26,0,75,0 ,29.4,0 ,54,0 ,28.9,0 ,28.7,0 
2004/8/5 2:30,25.8,0,76,0 ,29.4,0 ,54,0 ,28.9,0 ,28.6,0 
2004/8/5 2:45,25.8,0,76,0 ,29.4,0 ,54,0 ,28.8,0 ,28.6,0 
2004/8/5 3:00,25.6,0,77,0 ,29.5,0 ,56,0 ,28.8,0 ,28.6,0 
2004/8/5 3:15,25.5,0,77,0 ,29.4,0 ,56,0 ,28.8,0 ,28.6,0 
2004/8/5 3:30,25.6,0,77,0 ,29.4,0 ,56,0 ,28.8,0 ,28.6,0 
2004/8/5 3:45,25.5,0,77,0 ,29.4,0 ,56,0 ,28.8,0 ,28.7,0 
2004/8/5 4:00,25.2,0,78,0 ,29.4,0 ,55,0 ,28.8,0 ,28.7,0 
2004/8/5 4:15,25.1,0,79,0 ,29.4,0 ,56,0 ,28.8,0 ,28.7,0 
2004/8/5 4:30,25.1,0,79,0 ,29.4,0 ,56,0 ,28.8,0 ,28.7,0 
2004/8/5 4:45,24.9,0,80,0 ,29.3,0 ,57,0 ,28.8,0 ,28.7,0 
2004/8/5 5:00,25,0,80,0 ,29.4,0 ,57,0 ,28.7,0 ,28.7,0 
2004/8/5 5:15,25.2,0,79,0 ,29.3,0 ,56,0 ,28.7,0 ,28.7,0 
2004/8/5 5:30,25.7,0,77,0 ,29.4,0 ,56,0 ,28.7,0 ,28.7,0 
2004/8/5 5:45,25.9,0,75,0 ,29.6,0 ,57,0 ,28.7,0 ,28.7,0 
2004/8/5 6:00,26.1,0,74,0 ,29.6,0 ,59,0 ,28.6,0 ,28.7,0 
2004/8/5 6:15,25.8,0,77,0 ,29.5,0 ,60,0 ,28.4,0 ,28.6,0 
2004/8/5 6:30,26.3,0,76,0 ,29.6,0 ,61,0 ,28.2,0 ,28.5,0 
2004/8/5 6:45,29.3,0,63,0 ,29.2,0 ,53,0 ,28.3,0 ,28.5,0 
2004/8/5 7:00,30.4,0,57,0 ,29,0 ,50,0 ,28.3,0 ,28.5,0 